www.pogodaiklimat.ru

Погода и климат >> Архив погоды >> Канада >> Ньюфаундленд и Лабрадор >> Сент-Джонс аэропорт


АРХИВ ПОГОДЫ в Сент-Джонс аэропорту

Время (UTC), дата Ветер
(напр.,м/с)
 
Видим.   Явления Облачность Т
(С)
Тd
(С)
f
(%)
Тe
(С)
Тes
(С)
Комфортность P
(гПа)
Po
(гПа)
Тmin
(С)
Tmax
(С)
R
(мм)
R24
(мм)
S
(см)
12 14.04 З 8 600 м туман {ливн. осадки} н/о +4.1 +4.0 99 -2 -2 по сезону 999.4 982.3 +1.2 +6.8 1
15 14.04 З 13 24 км 10/10 200 м
[]
+5.7 +4.5 92 -1 -1 по сезону 999.0 981.9
18 14.04 СЗ 7 24 км {туман} 9/9 1500 м
[Cu hum]
+7.8 +3.3 73 +4 +4 тепло 999.0 981.9 +1.2 +9.0
21 14.04 СЗ 9 24 км 9/9 1000 м
[]
+6.1 -0.7 62 +1 +1 по сезону 1001.9 984.7
00 15.04 С 7 24 км 10/10 600 м
[Sc]
+2.0 -1.5 78 -4 -4 по сезону 1007.0 989.7 +1.6 +9.0
03 15.04 СЗ 5 24 км 6/6 1000 м
[]
-0.1 -2.4 84 -6 -6 по сезону 1009.5 992.2
06 15.04 С 4 24 км 1/1 600 м
[Sc]
-1.5 -2.8 91 -7 -7 по сезону 1011.5 994.2 -1.5 +9.0 201
09 15.04 З 2 24 км 10/10 1000 м
[]
-2.2 -3.2 93 -6 -6 по сезону 1014.1 996.7
12 15.04 С 1 24 км 6/1 1500 м
[Sc Ci fib]
+3.3 -6.1 50 +4 +10 тепло 1015.3 997.9 -3.4 +9.0
15 15.04 ЮВ 6 24 км 9/9 1500 м
[]
+5.0 -3.7 53 0 +1 по сезону 1014.6 997.2
18 15.04 Ю 8 24 км 10/1 1500 м
[Sc As op Ci sp]
+2.9 -6.8 49 -3 -2 по сезону 1014.5 997.0 -3.4 +6.3
21 15.04 Ю 8 24 км 10/10 600 м
[]
+0.2 -5.0 68 -7 -7 прохладно 1012.9 995.4
00 16.04 ЮВ 8 24 км слаб. переохл. дождь (гололёд) 10/10 200 м
[Frnb]
-1.2 -2.0 94 -9 -9 прохладно 1011.0 993.6 -3.4 +6.3 0.4
03 16.04 ЮВ 10 600 м н/о -1.3 -1.3 100 -10 -10 прохладно 1005.9 988.6
06 16.04 ЮВ 12 600 м слаб. переохл. дождь (гололёд) н/о -1.0 -1.0 100 -11 -11 холодно 999.1 981.9 -3.4 +6.3 6 62
09 16.04 ЮВ 8 400 м н/о -0.4 -0.4 100 -8 -8 прохладно 994.5 977.3
12 16.04 800 м туман {дождь} н/о +1.5 +1.5 100 -4 -2 по сезону 991.4 974.3 -1.4 +6.3 10
15 16.04 Ю 2 400 м н/о +3.9 +3.9 100 +1 +1 по сезону 988.2 971.2
18 16.04 ЮЗ 7 24 км {морось, туман} 10/10 100 м
[St]
+7.3 +6.5 95 +2 +2 по сезону 984.9 968.0 -1.4 +10.2 0.2
21 16.04 ЮЗ 7 24 км 10/10 200 м
[]
+4.3 +3.0 91 -2 -2 по сезону 983.1 966.2
00 17.04 ЮЗ 8 19 км в посл. час ливневой дождь {морось} 10/10 100 м
[Frnb]
+1.3 +0.8 96 -6 -6 по сезону 981.2 964.3 -1.0 +10.2 0.0
03 17.04 ЮЗ 8 24 км 10/10 300 м
[]
+0.7 -0.2 94 -7 -7 по сезону 979.4 962.6
06 17.04 З 8 24 км слаб. ливневой снег 10/10 200 м
[Cu med, cong]
+0.2 -0.4 96 -8 -8 по сезону 978.3 961.5 -1.0 +10.2 0.0 72
09 17.04 З 10 24 км 10/10 200 м
[]
-0.4 -0.9 96 -9 -9 прохладно 978.3 961.5
12 17.04 СЗ 8 12 км слаб. снег 10/10 100 м
[Frnb]
+0.6 0.0 96 -7 -7 прохладно 980.6 963.7 -0.5 +10.2 0.0 <0.5
15 17.04 С 12 16 км 10/10 200 м
[]
+0.7 -0.5 92 -8 -8 холодно 984.6 967.6
18 17.04 С 16 19 км слаб. снег {морось} 10/10 200 м
[Frnb]
+0.8 -1.0 88 -9 -9 очень
холодно
989.2 972.1 -0.5 +1.1 0.0
21 17.04 С 16 2400 м 8/8 300 м
[]
-0.4 -1.8 90 -11 -11 очень
холодно
995.4 978.2
00 18.04 С 13 24 км в посл. час снег 10/10 300 м
[Sc]
-1.0 -3.0 86 -11 -11 холодно 1001.6 984.3 -1.0 +1.1 0.4
03 18.04 С 12 24 км 10/10 300 м
[]
-1.3 -3.4 86 -11 -11 холодно 1005.5 988.1
06 18.04 С 11 24 км {морось} 10/10 300 м
[Sc]
-1.5 -4.2 82 -10 -10 прохладно 1007.8 990.4 -1.5 +1.1 0.0 213
09 18.04 С 10 24 км 10/10 300 м
[]
-1.6 -4.2 82 -10 -10 холодно 1011.4 993.9
12 18.04 С 9 24 км слаб. ливневой снег 10/10 600 м
[Sc]
-1.2 -3.8 82 -9 -9 холодно 1015.0 997.5 -1.6 +1.1 0.0
15 18.04 С 10 24 км 10/10 600 м
[]
+0.6 -4.1 71 -7 -7 холодно 1017.7 1000.1
18 18.04 С 11 24 км слаб. ливневой снег 10/10 1000 м
[Sc]
-0.1 -5.1 69 -8 -8 очень
холодно
1020.0 1002.4 -1.6 +0.7 0.0
21 18.04 С 7 24 км 10/10 600 м
[]
-0.5 -6.2 65 -7 -7 прохладно 1023.0 1005.3
00 19.04 С 2 24 км {ливн. осадки} ясно -2.5 -6.3 75 -6 -6 по сезону 1025.3 1007.6 -2.6 +1.0 0.0
03 19.04 ЮЗ 3 24 км ясно -4.4 -6.7 84 -9 -9 прохладно 1026.5 1008.7
06 19.04 Ю 3 24 км ясно -5.1 -7.3 85 -10 -10 прохладно 1025.8 1008.0 -5.4 +1.0 71
09 19.04 З 4 24 км 4/0
[]
-3.5 -4.9 90 -10 -10 холодно 1026.3 1008.5
12 19.04 З 7 24 км 10/0
[Cs]
+2.6 -5.1 57 -3 -2 по сезону 1026.5 1008.8 -5.4 +1.0
15 19.04 ЮЗ 6 24 км 10/0
[]
+6.3 -7.1 38 +2 +5 по сезону 1025.2 1007.6
18 19.04 ЮЗ 8 24 км 10/10 1000 м
[Sc]
+2.6 -4.7 59 -3 -3 прохладно 1023.7 1006.0 -5.4 +6.4
21 19.04 Ю 12 4800 м 10/10 300 м
[]
0.0 -1.1 92 -9 -9 холодно 1019.5 1001.9
00 20.04 Ю 12 19 км слаб. дождь 10/10 200 м
[Frnb]
+0.6 +0.2 97 -8 -8 прохладно 1016.4 998.9 -5.2 +6.4 1
03 20.04 ЮЗ 10 24 км 10/10 200 м
[]
+4.8 +4.5 98 -2 -2 по сезону 1012.7 995.4
06 20.04 З 10 800 м слаб. морось {дождь, туман} н/о +4.9 +4.8 99 -2 -2 по сезону 1012.0 994.7 -5.2 +6.4 0.2 2
09 20.04 З 6 3200 м 10/10 50 м
[]
+4.4 +4.4 100 -1 -1 по сезону 1014.8 997.4
12 20.04 З 6 12 км слаб. морось {туман} 10/10 50 м
[Frnb]
+4.8 +4.8 100 -1 -1 по сезону 1017.5 1000.1 +0.6 +6.4 0.4
15 20.04 СЗ 2 24 км 10/10 100 м
[]
+5.3 +4.7 96 +2 +2 по сезону 1020.0 1002.6
18 20.04 ЮВ 3 3600 м слаб. ливневой дождь {морось} 10/10 50 м
[Frnb]
+5.7 +5.5 99 +2 +2 по сезону 1021.8 1004.4 -0.3 +6.5 2
21 20.04 В 3 800 м н/о +3.6 +3.6 100 -0 -0 по сезону 1022.7 1005.2
00 21.04 В 4 600 м слаб. морось {туман} н/о +2.2 +2.2 100 -3 -3 по сезону 1025.2 1007.7 +2.2 +6.5 3
03 21.04 Ю 4 800 м н/о +1.8 +1.8 100 -3 -3 по сезону 1027.4 1009.8
06 21.04 Ю 1 800 м туман ясно +0.2 +0.2 100 -2 -2 по сезону 1029.6 1012.0 +0.2 +6.5 0.2 71
09 21.04 Ю 4 24 км 9/0
[]
+1.8 +1.8 100 -3 -3 по сезону 1031.0 1013.3

 

Местоположение метеостанции Сент-Джонс аэропорт (Ньюфаундленд и Лабрадор, Канада): широта 47.62 долгота -52.73 высота над уровнем моря 140 м.

В архиве по умолчанию представлена погода в Сент-Джонс аэропорту за последнюю неделю. Архивные данные за месяц целиком и за предыдущие месяцы, начиная с января 2011 года, Вы можете получить, выбрав интересующий диапазон дат из раскрывающегося списка и нажав кнопку "Ввод!".


*Определитесь, кто Вы:
робот инопланетянин человек

Внимание! Время в таблицах - всемирное. Для получения местного времени необходимо прибавить поправку, которая равна -4 ч.

Смотрите также архив погоды в соседних городах и на ближайших метеорологических станциях:

Погода в Санди Лейк (Онтарио, Канада) (12 км)
Погода в Грейтс Ков (Ньюфаундленд и Лабрадор, Канада) (63 км)
Погода в Аргентии (Ньюфаундленд и Лабрадор, Канада) (102 км)
Погода в Кейп-Рейсе (Ньюфаундленд и Лабрадор, Канада) (111 км)
Погода в Ботависте (Ньюфаундленд и Лабрадор, Канада) (120 км)
Погода в Пемброке (Онтарио, Канада) (120 км)
Погода в Терра Нова (Ньюфаундленд и Лабрадор, Канада) (138 км)
Погода в Пуллс Айленд (Ньюфаундленд и Лабрадор, Канада) (176 км)
Погода в Гандере (Ньюфаундленд и Лабрадор, Канада) (199 км)
Погода в Гандере (Ньюфаундленд и Лабрадор, Канада) (199 км)

Пояснения к столбцам:

Ветер - указаны скорость ветра в м/с - средняя за 10 мин, порывы в срок и между сроками (в фигурных скобках) и направление, откуда дует ветер: С - северный, СВ - северо-восточный, В - восточный, ЮВ - юго-восточный, Ю - южный, ЮЗ - юго-западный, З - западный, СЗ - северо-западный.
Видимость - горизонтальная дальность видимости в метрах или километрах. При видимости от 1 до 10 км при отсутствии осадков обычно наблюдается дымка, при ухудшении видимости до 1 км и менее - туман. В сухую погоду видимость может ухудшаться дымом, пылью или мглою.
Явления - указаны атмосферные явления, наблюдавшиеся в срок или в последний час перед сроком; фигурными скобками обозначены явления, наблюдавшиеся между сроками (за 1-3 часа до срока); квадратными скобками обозначены град или гололедные отложения с указанием их диаметра в мм.
Облачность - указаны через наклонную черту общая и нижняя облачность в баллах и высота нижней границы облаков в метрах; квадратными скобками обозначены формы облаков: Ci - перистые, Cs - перисто-слоистые, Cc - перисто-кучевые, Ac - высококучевые, As - высокослоистые, Sc - слоисто-кучевые, Ns - слоисто-дождевые, Cu - кучевые, Cb - кучево-дождевые. Подробнее классификацию облаков см. в Атласе облаков (PDF).
T - Температура воздуха - температура, измеренная на высоте 2 м над землей.
Td - Температура точки росы - температура, при понижении до которой содержащийся в воздухе водяной пар достигнет насыщения.
f - Относительная влажность воздуха - влажноcть воздуха, измеренная на высоте 2 м над землей.
Te - Эффективная температура - температура, которую ощущает одетый по сезону человек в тени. Характеристика душности погоды. При расчете учитывается влияние влажности воздуха и скорости ветра на теплоощущения человека.
Tes - Эффективная температура на солнце - температура, которую ощущает человек, с поправкой на солнечный нагрев. Характеристика знойности погоды. Зависит от высоты солнца над горизонтом, облачности и скорости ветра. Ночью, в пасмурную погоду, а также при ветре 12 м/с и более поправка равна нулю.
P - Атмосферное давление - приведенное к уровню моря атмосферное давление.
Po - Атмосферное давление - измеренное на уровне метеостанции атмосферное давление.
Tmin - Минимальная температура - минимум температуры воздуха на высоте 2 м над землей.
Tmax - Максимальная температура - максимум температуры воздуха на высоте 2 м над землей.
R - Количество осадков - Количество выпавших осадков за период времени, мм. При наведении курсора мыши на число - период времени, за который выпало указанное количество осадков.
R24 - Количество осадков - Количество выпавших осадков за 24 часа, мм.
S - Снежный покров - Высота снежного покрова, см. При наведении курсора мыши на число - состояние снежного покрова и степень покрытия местности в баллах.